Location: Newark
(46.7114°N, 6.1944°E)
Time: 05:49:25
(UTC+00:00)

ISS - Visible Passes

Search period start: 14 November 2019 00:00
Search period end: 24 November 2019 00:00
Orbit: 412 x 421 km, 51.6° (Epoch: 14 November)

Date Brightness Start Highest point End Pass type
(mag) Time Alt. Az. Time Alt. Az. Time Alt. Az.
21 Nov -1.3 18:14:51 10° SSW 18:15:49 17° SSW 18:15:49 17° SSW visible
22 Nov -2.1 17:27:01 10° S 17:29:32 20° SE 17:29:36 20° SE visible
23 Nov -1.4 16:39:46 10° SSE 16:41:17 12° SE 16:42:46 10° ESE visible
23 Nov -2.3 18:14:09 10° SW 18:16:13 35° SW 18:16:13 35° SW visible
